Regional Weather Roundup
Issued by NWS

Home | Current Version | Previous Version | Graphics & Text | Print | Product List | Glossary Off
Versions: 1 2 3 4 5 6 7 8 9 10 11 12 13 14 15 16 17 18 19 20 21 22 23 24 25 26 27 28 29 30 31 32 33 34 35 36 37 38 39 40 41 42 43 44 45 46 47 48 49 50

000
ASUS43 KTOP 282308
RWRKS

WEATHER ROUNDUP FOR KANSAS
NATIONAL WEATHER SERVICE GOODLAND KS
600 PM CDT THU MAY 28 2015

NOTE:  "FAIR" INDICATES FEW OR NO CLOUDS BELOW 12,000 FEET WITH NO
SIGNIFICANT WEATHER AND/OR OBSTRUCTIONS TO VISIBILITY.

KSZ001>006-013>018-027>032-041>047-290000-
NORTHWEST KANSAS

CITY           SKY/WX    TMP DP  RH WIND       PRES   REMARKS
GOODLAND       CLOUDY    65  59  81 E5        29.91F
HAYS           MOSUNNY   73  61  64 SE10      29.90S
HILL CITY      CLOUDY    72  60  66 S8        29.90F
RUSSELL        MOSUNNY   76  64  66 S16       29.88F
$$

KSZ061>065-074>080-084>089-290000-
SOUTHWEST KANSAS

CITY           SKY/WX    TMP DP  RH WIND       PRES   REMARKS
DODGE CITY     CLOUDY    77  60  55 SE17      29.90S
ELKHART          N/A     72  58  61 S13         N/A
GARDEN CITY    PTSUNNY   73  61  65 S12       29.88R
GREAT BEND     MOSUNNY   79  61  53 S14       29.89S
LIBERAL        CLOUDY    77  63  61 S22       29.88S
PRATT          MOSUNNY   79  61  53 SE18      29.89F
$$

KSZ066>073-081>083-090>101-290000-
SOUTHEAST KANSAS

CITY           SKY/WX    TMP DP  RH WIND       PRES   REMARKS
CHANUTE        SUNNY     76  64  66 S10       29.97F
COFFEYVILLE    MOSUNNY   75  66  73 S10       29.97S
HUTCHINSON     SUNNY     79  64  60 S9        29.89F
MEDICINE LODGE   N/A     81  65  58 SE12G23   29.88F
NEWTON         PTSUNNY   77  63  61 S10       29.94F
PARSONS        SUNNY     75  66  73 S7        29.98F
WICHITA INTL   MOSUNNY   80  62  54 SE10      29.90F
WICHITA JABRA  SUNNY     78  62  57 S9        29.92F
WICHITA MCCONL SUNNY     79  63  58 SE12      29.92F
WINFIELD       SUNNY     79  66  64 SE8       29.93F
$$

KSZ007>012-019>026-033>040-048>060-102>105-290000-
NORTHEAST KANSAS

CITY           SKY/WX    TMP DP  RH WIND       PRES   REMARKS
CONCORDIA      MOSUNNY   77  63  61 S12       29.90F
EMPORIA        SUNNY     77  62  59 S14       29.94F
LAWRENCE       CLOUDY    73  65  75 SE9       29.95F
MANHATTAN      PTSUNNY   77  64  64 S12       29.92S
MARYSVILLE     MOSUNNY   75  66  73 S8        29.93S
OLATHE IND     CLOUDY    71  63  75 E9        29.98F
OLATHE EXE     CLOUDY    70  64  81 SE6       29.98F
SALINA         SUNNY     78  63  59 S14G22    29.89F
TOPEKA BILLARD CLOUDY    75  64  68 S12       29.94F
TOPEKA FORBES  CLOUDY    76  63  64 S10       29.95F
$$



USA.gov is the U.S. government's official web portal to all federal, state and local government web resources and services.